TimeCDT,TemperatureF,Dew PointF,Humidity,Sea Level PressureIn,VisibilityMPH,Wind Direction,Wind SpeedMPH,Gust SpeedMPH,PrecipitationIn,Events,Conditions,WindDirDegrees,DateUTC
12:53 AM,72.0,59.0,64,29.89,10.0,SSE,10.4,-,N/A,,Clear,160,2013-07-06 05:53:00
1:53 AM,70.0,60.1,71,29.89,10.0,SSE,8.1,-,N/A,,Clear,160,2013-07-06 06:53:00
2:53 AM,70.0,60.1,71,29.88,10.0,South,10.4,-,N/A,,Partly Cloudy,170,2013-07-06 07:53:00
3:53 AM,69.1,60.1,73,29.88,10.0,South,10.4,-,N/A,,Partly Cloudy,170,2013-07-06 08:53:00
4:53 AM,69.1,60.1,73,29.89,10.0,South,10.4,-,N/A,,Scattered Clouds,170,2013-07-06 09:53:00
5:53 AM,68.0,60.1,76,29.91,10.0,SSE,10.4,27.6,N/A,,Partly Cloudy,160,2013-07-06 10:53:00
6:53 AM,68.0,60.1,76,29.92,10.0,SSE,9.2,-,N/A,,Clear,160,2013-07-06 11:53:00
7:53 AM,71.1,61.0,70,29.92,10.0,SSE,12.7,-,N/A,,Clear,160,2013-07-06 12:53:00
8:53 AM,75.9,61.0,60,29.91,10.0,South,15.0,23.0,N/A,,Partly Cloudy,170,2013-07-06 13:53:00
9:53 AM,80.1,62.1,54,29.91,10.0,South,16.1,24.2,N/A,,Clear,170,2013-07-06 14:53:00
10:53 AM,79.0,61.0,54,29.90,10.0,SSE,18.4,24.2,N/A,,Clear,160,2013-07-06 15:53:00
11:53 AM,81.0,62.1,52,29.89,10.0,SSE,19.6,28.8,N/A,,Clear,160,2013-07-06 16:53:00
12:53 PM,82.0,63.0,52,29.89,10.0,South,18.4,27.6,N/A,,Clear,170,2013-07-06 17:53:00
1:53 PM,82.0,63.0,52,29.89,10.0,South,16.1,25.3,N/A,,Clear,180,2013-07-06 18:53:00
2:53 PM,81.0,63.0,54,29.89,10.0,South,10.4,-,N/A,,Clear,180,2013-07-06 19:53:00
3:53 PM,81.0,64.0,56,29.90,10.0,South,15.0,21.9,N/A,,Clear,180,2013-07-06 20:53:00
4:53 PM,78.1,64.9,64,29.89,9.0,South,13.8,-,0.00,Rain,Light Rain,170,2013-07-06 21:53:00
5:53 PM,79.0,64.0,60,29.88,10.0,SE,13.8,20.7,0.00,,Overcast,140,2013-07-06 22:53:00
6:53 PM,78.1,64.0,62,29.87,10.0,SSE,12.7,-,N/A,,Mostly Cloudy,150,2013-07-06 23:53:00
7:00 PM,78.8,64.4,61,29.90,10.0,SSE,12.7,-,N/A,Thunderstorm,Mostly Cloudy,160,2013-07-07 00:00:00
7:15 PM,77.0,64.4,65,29.91,8.0,South,15.0,-,0.00,Rain,Light Rain,170,2013-07-07 00:15:00
7:40 PM,73.4,66.2,78,29.89,10.0,SE,17.3,26.5,0.06,Thunderstorm,Overcast,140,2013-07-07 00:40:00
7:53 PM,73.9,66.0,76,29.87,10.0,SE,15.0,26.5,0.06,Thunderstorm,Overcast,140,2013-07-07 00:53:00
8:11 PM,73.4,66.2,78,29.91,10.0,SE,11.5,-,N/A,,Overcast,140,2013-07-07 01:11:00
8:53 PM,73.9,66.0,76,29.88,10.0,SSE,13.8,-,0.00,Rain,Light Rain,150,2013-07-07 01:53:00
9:53 PM,73.9,64.9,73,29.89,10.0,SSE,16.1,25.3,0.00,,Mostly Cloudy,160,2013-07-07 02:53:00
10:53 PM,75.0,63.0,66,29.91,10.0,SSE,15.0,-,0.01,,Partly Cloudy,160,2013-07-07 03:53:00
11:53 PM,75.0,62.1,64,29.91,10.0,SSE,12.7,21.9,N/A,,Partly Cloudy,160,2013-07-07 04:53:00